Regional Weather Roundup
Issued by NWS

Home | Current Version | Previous Version | Text Only | Print | Product List | Glossary Off
Versions: 1 2 3 4 5 6 7 8 9 10 11 12 13 14 15 16 17 18 19 20 21 22 23 24 25 26 27 28 29 30 31 32 33 34 35 36 37 38 39 40 41 42 43 44 45 46 47 48 49 50

708
ASUS43 KMPX 010610
RWRMN
WEATHER ROUNDUP FOR MINNESOTA
NATIONAL WEATHER SERVICE TWIN CITIES/CHANHASSEN MN
100 AM CDT SUN MAY 01 2016


NOTE: "FAIR" INDICATES FEW OR NO CLOUDS BELOW 12,000 FEET WITH NO
SIGNIFICANT WEATHER AND/OR OBSTRUCTIONS TO VISIBILITY. N/A MEANS
CURRENT SKY AND/OR WEATHER CONDITIONS ARE NOT AVAILABLE.

MNZ060>063-068>070-010700-
   Twin Cities Metro

CITY           SKY/WX    TMP DP  RH WIND       PRES   REMARKS
TWIN CITIES    CLOUDY    47  31  53 NE10      30.12S
6HR MIN TEMP:  47; 6HR MAX TEMP:  55;

ST PAUL        CLOUDY    46  32  58 NE10      30.13S
CRYSTAL        MOCLDY    45  29  53 NE7       30.12S
BLAINE         CLOUDY    45  32  61 NE10      30.13S
EDEN PRAIRIE   CLOUDY    47  30  51 NE8       30.11R
6HR MIN TEMP:  47; 6HR MAX TEMP:  55;

SOUTH ST PAUL  CLOUDY    47  32  55 NE5       30.12R
LAKE ELMO      CLOUDY    45  34  65 NE10G16   30.12S
$$
MNZ001>005-007-008-013>017-022>024-027-028-010700-
   Northwest Minnesota

CITY           SKY/WX    TMP DP  RH WIND       PRES   REMARKS
BEMIDJI        CLEAR     39  30  68 E3        30.24R
HALLOCK        CLEAR     41  27  56 N6        30.28F
ROSEAU         CLEAR     37  30  75 N3        30.28S
WARROAD        CLEAR     39  34  81 N5        30.29R
THIEF RVR FALL CLEAR     45  27  49 NE8       30.27S
CROOKSTON      CLEAR     43  28  56 NE6       30.27R
FOSSTON        CLEAR     39  27  60 NE6       30.25R
DETROIT LAKES  CLEAR     45  32  61 SE3       30.23R
MOORHEAD       CLEAR     41  28  60 E6        30.23R
PARK RAPIDS    CLEAR     43  28  55 E7        30.22R
MAHNOMEN       FAIR      39  28  66 E7        30.23R
$$
MNZ006-009>011-018-025>026-010700-
   North Central Minnesota

CITY           SKY/WX    TMP DP  RH WIND       PRES   REMARKS
BAUDETTE       CLEAR     42  26  53 NE7       30.26S
FLAG ISLAND    CLEAR     45  36  70 N3        30.28S
INTL FALLS     CLEAR     41  28  60 NE5       30.26R
6HR MIN TEMP:  38; 6HR MAX TEMP:  55;

WASKISH        PTCLDY    43  30  61 NE6       30.25R
BIG FORK       PTCLDY    30  27  86 CALM      30.25R
LONGVILLE      CLEAR     36  28  75 CALM      30.23R
GRAND RAPIDS   CLEAR     32  23  69 CALM      30.24S
CRANE LAKE     CLEAR     27  27 100 CALM      30.28S
ORR            CLEAR     34  27  75 CALM      30.23S
COOK           CLEAR     30  27  86 CALM      30.25S
WALKER         FAIR      41  30  63 E6        30.24R
$$
MNZ012-019>021-037-010700-
   Northeast Minnesota

CITY           SKY/WX    TMP DP  RH WIND       PRES   REMARKS
DULUTH         CLEAR     36  26  67 NE9       30.21S
6HR MIN TEMP:  36; 6HR MAX TEMP:  45;

ELY            CLEAR     28  27  93 CALM      30.24S
HIBBING        CLEAR     27  25  92 NW3       30.23S
EVELETH        CLEAR     30  28  93 CALM      30.24S
DULUTH HARBOR  CLOUDY    39  34  81 NE14      30.23S
TWO HARBORS    CLEAR     37  28  70 N6        30.22R
SILVER BAY     CLEAR     28  27  93 CALM      30.23R
GRAND MARAIS     N/A     42  27  55 N8        30.24F
G MARAIS ARPRT CLEAR     34  23  64 N8        30.23S WCI  27
$$
MNZ029>031-032-039>041-046>048-054>057-064-010700-
   West Central Minnesota

CITY           SKY/WX    TMP DP  RH WIND       PRES   REMARKS
FERGUS FALLS   CLEAR     43  30  61 CALM      30.20R
WHEATON        CLOUDY    43  34  70 NE5       30.22R
MORRIS         CLOUDY    43  28  56 NE15G21   30.17R
ALEXANDRIA     CLOUDY    42  27  55 E15       30.19R
ELBOW LAKE     FAIR      44  31  61 NE6       30.20R
WADENA         PTCLDY    39  28  65 E6        30.21R
GLENWOOD       CLOUDY    39  28  65 NE14      30.17R
APPLETON       CLOUDY    45  28  53 NE13      30.15R
BENSON         CLOUDY    43  27  52 E16       30.16R
ORTONVILLE     CLOUDY    45  30  57 NE10      30.16R
MADISON        CLOUDY    45  30  57 NE12      30.15R
WILLMAR        MOCLDY    45  30  57 NE16G22   30.15R
$$
MNZ033>034-036-042>043-049>051-058-059-010700-
   Central Minnesota

CITY           SKY/WX    TMP DP  RH WIND       PRES   REMARKS
ST CLOUD       CLOUDY    41  28  60 NE10G20   30.16R
6HR MIN TEMP:  41; 6HR MAX TEMP:  54;

SAUK CENTRE    FAIR      41  28  60 NE10      30.18R
PAYNESVILLE    CLOUDY    42  28  57 NE13      30.16S
AITKIN         CLEAR     39  25  56 CALM      30.20S
PINE RIVER     CLEAR     37  28  70 NE3       30.25S
BRAINERD       CLEAR     37  26  64 NE5       30.21S
STAPLES        CLEAR     39  27  60 E8        30.21S
LONG PRAIRIE   FAIR      37  28  70 NE10      30.19R
LITTLE FALLS   CLOUDY    41  27  56 NE6       30.19R
LITCHFIELD     MOCLDY    45  30  57 NE10G17   30.14S
BUFFALO        PTCLDY    43  29  57 N8        30.15S
MAPLE LAKE     MOCLDY    44  32  63 NE7       30.16R
HUTCHINSON     CLEAR     45  31  58 NE16      30.14R
$$
MNZ037-044-045-052-053-010700-
   East Central Minnesota

CITY           SKY/WX    TMP DP  RH WIND       PRES   REMARKS
PRINCETON      CLOUDY    43  30  61 NE8       30.17S
MORA           PTCLDY    36  28  75 NE6       30.19S
CAMBRIDGE      CLOUDY    43  30  61 N7        30.14S
RUSH CITY      CLOUDY    38  30  71 N8        30.17R
MOOSE LAKE     CLOUDY    36  28  75 NE7       30.19S
HINCKLEY       FAIR      37  32  81 N7        30.18S
CLOQUET        CLOUDY    36  27  69 NE7       30.21S
MCGREGOR       CLOUDY    37  30  75 NE5       30.22R
$$
MNZ071>073-080-081-089-090-097-098-010700-
   Southwest Minnesota

CITY           SKY/WX    TMP DP  RH WIND       PRES   REMARKS
MONTEVIDEO     CLOUDY    45  30  57 E13       30.15S
GRANITE FALLS  MOCLDY    46  33  59 NE16      30.14R
CANBY          CLOUDY    47  36  66 NE8       30.15R
MARSHALL       CLOUDY    45  33  63 NE10      30.12R
REDWOOD FALLS  CLOUDY    47  30  51 NE8       30.11R
OLIVIA         CLOUDY    43  30  61 NE12      30.12R
PIPESTONE      CLOUDY    45  43  93 E9        30.08S
WINDOM         DRIZZLE   43  43 100 NE7       30.09S
WORTHINGTON    LGT RAIN  42  40  92 NE16      30.08R
JACKSON        LGT SNOW  43  39  87 NE18G26   30.07S
TRACY          DRIZZLE   45  42  89 E9        30.11R
SLAYTON        DRIZZLE   42  41  97 NE10      30.10S
$$
MNZ065>067-074>077-082>085-091>093-010700-
   South Central Minnesota

CITY           SKY/WX    TMP DP  RH WIND       PRES   REMARKS
MANKATO        CLOUDY    46  39  76 NE8       30.10R
NEW ULM        RAIN      45  43  93 NE3       30.11R
ST JAMES       DRIZZLE   39  37  93 N5        30.11R
FAIRMONT       CLOUDY    43  36  75 NE16      30.06S
GLENCOE        CLOUDY    46  33  62 NE6       30.12R
FARIBAULT      CLOUDY    43  43 100 N3        30.10S
OWATONNA       CLOUDY    45  39  81 NE7       30.08S
WASECA         CLOUDY    43  39  87 NE10      30.09S
ALBERT LEA     CLOUDY    43  43 100 NE13      30.06R
$$
MNZ078>079-086>088-094>096-010700-
   Southeast Minnesota

CITY           SKY/WX    TMP DP  RH WIND       PRES   REMARKS
ROCHESTER      CLOUDY    42  39  89 E17G25    30.07S
6HR MIN TEMP:  42; 6HR MAX TEMP:  43; 6HR PCP:  0.05;

RED WING       DRIZZLE   46  37  71 CALM      30.10R
STANTON        CLOUDY    45  42  90 CALM      30.09S
DODGE CENTER   CLOUDY    41  41 100 NE9       30.07S
WINONA         CLOUDY    46  39  76 E5G16     30.08S
AUSTIN         CLOUDY    43  37  81 NE12      30.05R
PRESTON        CLOUDY    40  38  93 NE13      30.06R
$$
ABBREVIATIONS USED IN REMARKS
   TC - TEMPERATURES IN CELSIUS
  WCI - WIND CHILL INDEX
   HX - HEAT INDEX
  VSB - VISIBILITY
$$




USA.gov is the U.S. government's official web portal to all federal, state and local government web resources and services.